• In Hungary
  • List of Countries
  • For 7 days
  • Water Temperature
  • Satellite Maps
  • Weather Map
  • News
  • Weather Widgets
  • user-avatar
    Login

    Hourly Weather Maringa

    Today, 15 November, Thursday

    Time Temperature Precipitation Wind Pressure Humidity
    00:00 +23°C° 0 mm 0 mps 710 mmHg 87%
    01:00 +22°C° 0 mm 0 mps 710 mmHg 88%
    02:00 +24°C° 0 mm 1 mps 710 mmHg 89%
    03:00 +24°C° 0 mm 1 mps 709 mmHg 90%
    04:00 +23°C° 0 mm 1 mps 710 mmHg 91%
    05:00 +23°C° 0 mm 1 mps 710 mmHg 92%
    06:00 +23°C° 0 mm 1 mps 710 mmHg 93%
    07:00 +25°C° 0.1 mm 1 mps 710 mmHg 86%
    08:00 +27°C° 0.1 mm 1 mps 711 mmHg 78%
    09:00 +29°C° 0.1 mm 1 mps 711 mmHg 71%
    10:00 +30°C° 0.2 mm 1 mps 711 mmHg 66%
    11:00 +31°C° 0.2 mm 2 mps 711 mmHg 61%
    12:00 +32°C° 0.2 mm 2 mps 711 mmHg 56%
    13:00 +32°C° 0.4 mm 2 mps 710 mmHg 56%
    14:00 +32°C° 0.4 mm 2 mps 710 mmHg 56%
    15:00 +34°C° 0.4 mm 3 mps 709 mmHg 57%
    16:00 +32°C° 0.5 mm 2 mps 709 mmHg 60%
    17:00 +31°C° 0.5 mm 2 mps 709 mmHg 63%
    18:00 +31°C° 0.5 mm 1 mps 709 mmHg 67%
    19:00 +29°C° 0.2 mm 1 mps 709 mmHg 71%
    20:00 +28°C° 0.2 mm 1 mps 709 mmHg 74%
    21:00 +26°C° 0.2 mm 1 mps 710 mmHg 78%
    22:00 +26°C° 0 mm 2 mps 710 mmHg 80%
    23:00 +25°C° 0 mm 2 mps 710 mmHg 82%

    Tomorrow, 16 November, Friday

    Time Temperature Precipitation Wind Pressure Humidity
    00:00 +25°C° 0 mm 3 mps 711 mmHg 83%
    01:00 +24°C° 0 mm 3 mps 711 mmHg 84%
    02:00 +23°C° 0 mm 4 mps 710 mmHg 84%
    03:00 +22°C° 0 mm 4 mps 710 mmHg 85%
    04:00 +22°C° 0 mm 4 mps 711 mmHg 84%
    05:00 +21°C° 0 mm 4 mps 711 mmHg 83%
    06:00 +21°C° 0 mm 4 mps 711 mmHg 83%
    07:00 +22°C° 0 mm 4 mps 712 mmHg 77%
    08:00 +25°C° 0 mm 5 mps 713 mmHg 72%
    09:00 +27°C° 0 mm 5 mps 713 mmHg 66%
    10:00 +29°C° 0 mm 5 mps 713 mmHg 61%
    11:00 +30°C° 0 mm 4 mps 713 mmHg 56%
    12:00 +33°C° 0 mm 4 mps 713 mmHg 51%
    13:00 +34°C° 0 mm 3 mps 713 mmHg 50%
    14:00 +34°C° 0 mm 3 mps 712 mmHg 48%
    15:00 +35°C° 0 mm 3 mps 711 mmHg 46%
    16:00 +34°C° 0 mm 3 mps 711 mmHg 50%
    17:00 +32°C° 0 mm 2 mps 710 mmHg 54%
    18:00 +32°C° 0 mm 2 mps 710 mmHg 58%
    19:00 +30°C° 0 mm 3 mps 711 mmHg 60%
    20:00 +29°C° 0 mm 4 mps 711 mmHg 63%
    21:00 +28°C° 0 mm 5 mps 712 mmHg 65%
    22:00 +27°C° 0 mm 5 mps 712 mmHg 62%
    23:00 +26°C° 0 mm 6 mps 712 mmHg 60%

    Day after tomorrow, 17 November, Saturday

    Time Temperature Precipitation Wind Pressure Humidity
    00:00 +24°C° 0 mm 6 mps 713 mmHg 58%
    01:00 +23°C° 0 mm 6 mps 712 mmHg 56%
    02:00 +22°C° 0 mm 6 mps 712 mmHg 54%
    03:00 +21°C° 0 mm 6 mps 712 mmHg 53%
    04:00 +20°C° 0 mm 6 mps 712 mmHg 56%
    05:00 +20°C° 0 mm 6 mps 712 mmHg 59%
    06:00 +20°C° 0 mm 6 mps 712 mmHg 62%
    07:00 +21°C° 0 mm 6 mps 712 mmHg 61%
    08:00 +23°C° 0 mm 6 mps 713 mmHg 60%
    09:00 +26°C° 0 mm 6 mps 714 mmHg 59%
    10:00 +28°C° 0 mm 6 mps 714 mmHg 56%
    11:00 +30°C° 0 mm 6 mps 713 mmHg 53%
    12:00 +32°C° 0 mm 5 mps 713 mmHg 50%
    13:00 +33°C° 0 mm 5 mps 713 mmHg 49%
    14:00 +34°C° 0 mm 5 mps 712 mmHg 49%
    15:00 +34°C° 0 mm 5 mps 711 mmHg 48%
    16:00 +33°C° 0 mm 4 mps 711 mmHg 53%
    17:00 +32°C° 0 mm 4 mps 710 mmHg 57%
    18:00 +30°C° 0 mm 3 mps 710 mmHg 62%
    19:00 +29°C° 0 mm 3 mps 710 mmHg 65%
    20:00 +28°C° 0 mm 4 mps 711 mmHg 68%
    21:00 +27°C° 0 mm 4 mps 711 mmHg 71%
    22:00 +26°C° 0 mm 4 mps 711 mmHg 72%
    23:00 +26°C° 0 mm 4 mps 711 mmHg 73%

    18 November, Sunday

    Time Temperature Precipitation Wind Pressure Humidity
    00:00 +26°C° 0 mm 4 mps 711 mmHg 75%
    01:00 +25°C° 0 mm 4 mps 711 mmHg 74%
    02:00 +23°C° 0 mm 4 mps 710 mmHg 73%
    03:00 +23°C° 0 mm 4 mps 709 mmHg 73%
    04:00 +22°C° 0 mm 4 mps 709 mmHg 73%
    05:00 +22°C° 0 mm 4 mps 709 mmHg 74%
    06:00 +21°C° 0 mm 4 mps 709 mmHg 75%
    07:00 +23°C° 0 mm 4 mps 710 mmHg 74%
    08:00 +25°C° 0 mm 4 mps 711 mmHg 73%
    09:00 +26°C° 0 mm 5 mps 711 mmHg 72%
    10:00 +26°C° 0 mm 4 mps 711 mmHg 72%
    11:00 +27°C° 0 mm 3 mps 711 mmHg 73%
    12:00 +27°C° 0 mm 2 mps 711 mmHg 73%
    13:00 +28°C° 0.5 mm 2 mps 710 mmHg 71%
    14:00 +28°C° 0.5 mm 1 mps 710 mmHg 70%
    15:00 +29°C° 0.5 mm 1 mps 709 mmHg 69%
    16:00 +28°C° 1.4 mm 1 mps 709 mmHg 74%
    17:00 +27°C° 1.4 mm 1 mps 709 mmHg 79%
    18:00 +26°C° 1.4 mm 1 mps 709 mmHg 84%
    19:00 +26°C° 0 mm 1 mps 709 mmHg 86%
    20:00 +25°C° 0 mm 2 mps 710 mmHg 89%
    21:00 +24°C° 0 mm 2 mps 710 mmHg 91%
    22:00 +24°C° 0.1 mm 2 mps 710 mmHg 92%
    23:00 +24°C° 0.1 mm 1 mps 710 mmHg 92%

    19 November, Monday

    Time Temperature Precipitation Wind Pressure Humidity
    00:00 +23°C° 0.1 mm 1 mps 710 mmHg 93%
    01:00 +23°C° 0.9 mm 1 mps 710 mmHg 93%
    02:00 +23°C° 0.9 mm 2 mps 709 mmHg 92%
    03:00 +23°C° 0.9 mm 2 mps 709 mmHg 92%
    04:00 +23°C° 0.3 mm 2 mps 709 mmHg 91%
    05:00 +23°C° 0.3 mm 2 mps 710 mmHg 91%
    06:00 +22°C° 0.3 mm 3 mps 710 mmHg 91%
    07:00 +24°C° 0 mm 3 mps 710 mmHg 87%
    08:00 +25°C° 0 mm 3 mps 711 mmHg 82%
    09:00 +26°C° 0 mm 3 mps 711 mmHg 78%
    10:00 +27°C° 0.4 mm 3 mps 711 mmHg 75%
    11:00 +27°C° 0.4 mm 4 mps 711 mmHg 71%
    12:00 +28°C° 0.4 mm 4 mps 711 mmHg 68%
    13:00 +28°C° 1.6 mm 5 mps 711 mmHg 68%
    14:00 +28°C° 1.6 mm 5 mps 710 mmHg 69%
    15:00 +28°C° 1.6 mm 6 mps 710 mmHg 69%
    16:00 +27°C° 0.4 mm 5 mps 710 mmHg 71%
    17:00 +26°C° 0.4 mm 5 mps 710 mmHg 73%
    18:00 +25°C° 0.4 mm 5 mps 710 mmHg 75%
    19:00 +23°C° 0 mm 5 mps 710 mmHg 75%
    20:00 +22°C° 0 mm 5 mps 711 mmHg 76%
    21:00 +21°C° 0 mm 5 mps 711 mmHg 76%
    22:00 +20°C° 0 mm 5 mps 712 mmHg 77%
    23:00 +20°C° 0 mm 5 mps 712 mmHg 77%

    20 November, Tuesday

    Time Temperature Precipitation Wind Pressure Humidity
    00:00 +19°C° 0 mm 5 mps 712 mmHg 78%
    01:00 +19°C° 0 mm 5 mps 712 mmHg 78%
    02:00 +19°C° 0 mm 4 mps 712 mmHg 77%
    03:00 +19°C° 0 mm 4 mps 711 mmHg 77%
    04:00 +19°C° 0 mm 4 mps 712 mmHg 77%
    05:00 +18°C° 0 mm 4 mps 712 mmHg 78%
    06:00 +18°C° 0 mm 4 mps 712 mmHg 78%
    07:00 +20°C° 0 mm 5 mps 713 mmHg 75%
    08:00 +21°C° 0 mm 5 mps 713 mmHg 71%
    09:00 +22°C° 0 mm 5 mps 714 mmHg 67%
    10:00 +25°C° 0 mm 4 mps 713 mmHg 62%
    11:00 +27°C° 0 mm 4 mps 713 mmHg 58%
    12:00 +29°C° 0 mm 4 mps 713 mmHg 53%
    13:00 +29°C° 0 mm 3 mps 712 mmHg 53%
    14:00 +30°C° 0 mm 3 mps 712 mmHg 53%
    15:00 +30°C° 0 mm 3 mps 711 mmHg 53%
    16:00 +29°C° 0 mm 3 mps 711 mmHg 56%
    17:00 +29°C° 0 mm 2 mps 711 mmHg 60%
    18:00 +28°C° 0 mm 2 mps 710 mmHg 63%
    19:00 +27°C° 0 mm 3 mps 711 mmHg 67%
    20:00 +25°C° 0 mm 3 mps 711 mmHg 71%
    21:00 +23°C° 0 mm 4 mps 712 mmHg 74%
    22:00 +22°C° 0 mm 4 mps 712 mmHg 74%
    23:00 +21°C° 0 mm 5 mps 712 mmHg 74%
    Show more